Location: Arboyeti
(42.1122°N, 44.6017°E)
Time: 16:31:02
(UTC+00:00)

SPOT 5 - Pass Details

Date: 19 April 2021
Orbit: 623 x 814 km, 98.2° (Epoch: 07 May)

Event Time Altitude Azimuth Distance (km) Brightness Sun altitude
Exits shadow 18:49:20 56° 339° (NNW) 803 3.3 -28.5°
Drops below altitude 10° 18:53:05 10° 346° (NNW) 2,160 6.1 -29.0°
Sets 18:55:24 0° 347° (NNW) 3,114 7.2 -29.2°
